Location: Oklahoma City
(35.4680°N, 97.5160°W)
Time: 18:09:01
(UTC-05:00)

ISS - Visible Passes

Search period start: 24 October 2014 00:00
Search period end: 02 November 2014 23:00
Orbit: 412 x 416 km, 51.6° (Epoch: 24 October)

Date Brightness Start Highest point End Pass type
(mag) Time Alt. Az. Time Alt. Az. Time Alt. Az.
24 Oct -2.5 20:14:18 10° NW 20:16:57 41° N 20:16:57 41° N visible
25 Oct -2.1 19:25:21 10° NNW 19:28:15 27° NE 19:30:14 16° E visible
25 Oct -0.3 21:02:03 10° WNW 21:03:08 17° W 21:03:08 17° W visible
26 Oct -2.6 20:12:30 10° WNW 20:15:46 52° SW 20:16:35 40° S visible
27 Oct -3.4 19:23:12 10° NW 19:26:32 76° NE 19:29:51 10° SE visible
28 Oct -0.4 20:11:27 10° W 20:13:37 16° SW 20:15:47 10° S visible
29 Oct -1.3 19:21:26 10° WNW 19:24:25 31° SW 19:27:23 10° SSE visible
31 Oct 0.6 19:21:48 10° WSW 19:21:57 10° SW 19:22:05 10° SW visible
